Location: Alafon
(8.4500°N, 4.2333°E)
Time: 02:22:12
(UTC+00:00)

deb Explorer IX - Pass Details

Date: 27 July 2021
Orbit: 545 x 1092 km, 38.8° (Epoch: 16 September)

Event Time Altitude Azimuth Distance (km) Brightness Sun altitude
Rises 21:13:27 0° 317° (NW) 3,861 ? -42.7°
Reaches altitude 10° 21:16:16 10° 322° (NW) 2,924 ? -43.3°
Enters shadow 21:19:20 27° 332° (NNW) 1,970 ? -43.9°
Maximum altitude 21:23:21 56° 39° (NE) 1,262 - -44.7°
Drops below altitude 10° 21:30:10 10° 116° (ESE) 2,812 - -46.0°
Sets 21:32:48 0° 120° (ESE) 3,703 - -46.5°
